• In Slovakia
  • List of Countries
  • For 7 days
  • Water Temperature
  • Satellite Maps
  • Weather Map
  • Weather Widgets
  • user-avatar
    Login

    Hourly Weather Malanje

    Today, 20 June, Wednesday

    Time Temperature Precipitation Wind Pressure Humidity
    00:00 +18°C° 0 mm 1 mps 666 mmHg 68%
    01:00 +18°C° 0 mm 1 mps 666 mmHg 76%
    02:00 +16°C° 0 mm 1 mps 665 mmHg 80%
    03:00 +15°C° 0 mm 1 mps 665 mmHg 85%
    04:00 +15°C° 0 mm 1 mps 665 mmHg 89%
    05:00 +15°C° 0 mm 1 mps 665 mmHg 87%
    06:00 +16°C° 0 mm 1 mps 666 mmHg 84%
    07:00 +16°C° 0 mm 1 mps 666 mmHg 81%
    08:00 +21°C° 0 mm 1 mps 667 mmHg 65%
    09:00 +24°C° 0 mm 1 mps 668 mmHg 48%
    10:00 +28°C° 0 mm 2 mps 669 mmHg 32%
    11:00 +29°C° 0 mm 2 mps 669 mmHg 28%
    12:00 +31°C° 0 mm 2 mps 669 mmHg 23%
    13:00 +34°C° 0 mm 2 mps 668 mmHg 19%
    14:00 +32°C° 0 mm 2 mps 668 mmHg 19%
    15:00 +32°C° 0 mm 2 mps 667 mmHg 19%
    16:00 +32°C° 0 mm 2 mps 667 mmHg 19%
    17:00 +29°C° 0 mm 1 mps 666 mmHg 23%
    18:00 +26°C° 0 mm 1 mps 666 mmHg 27%
    19:00 +23°C° 0 mm 1 mps 666 mmHg 31%
    20:00 +23°C° 0 mm 1 mps 666 mmHg 36%
    21:00 +22°C° 0 mm 1 mps 667 mmHg 41%
    22:00 +21°C° 0 mm 1 mps 667 mmHg 46%
    23:00 +20°C° 0 mm 1 mps 667 mmHg 56%

    Tomorrow, 21 June, Thursday

    Time Temperature Precipitation Wind Pressure Humidity
    00:00 +19°C° 0 mm 1 mps 667 mmHg 67%
    01:00 +18°C° 0 mm 1 mps 667 mmHg 77%
    02:00 +16°C° 0 mm 1 mps 666 mmHg 82%
    03:00 +16°C° 0 mm 1 mps 666 mmHg 86%
    04:00 +15°C° 0 mm 1 mps 666 mmHg 91%
    05:00 +16°C° 0 mm 1 mps 666 mmHg 89%
    06:00 +16°C° 0 mm 1 mps 667 mmHg 88%
    07:00 +16°C° 0 mm 1 mps 667 mmHg 87%
    08:00 +20°C° 0 mm 1 mps 668 mmHg 73%
    09:00 +23°C° 0 mm 1 mps 669 mmHg 59%
    10:00 +26°C° 0 mm 1 mps 670 mmHg 45%
    11:00 +28°C° 0 mm 1 mps 670 mmHg 37%
    12:00 +30°C° 0 mm 2 mps 669 mmHg 30%
    13:00 +32°C° 0 mm 2 mps 669 mmHg 22%
    14:00 +32°C° 0 mm 2 mps 668 mmHg 22%
    15:00 +32°C° 0 mm 2 mps 668 mmHg 21%
    16:00 +31°C° 0 mm 1 mps 667 mmHg 20%
    17:00 +29°C° 0 mm 1 mps 667 mmHg 25%
    18:00 +26°C° 0 mm 1 mps 667 mmHg 29%
    19:00 +24°C° 0 mm 1 mps 667 mmHg 33%
    20:00 +23°C° 0 mm 1 mps 667 mmHg 36%
    21:00 +22°C° 0 mm 1 mps 667 mmHg 40%
    22:00 +21°C° 0 mm 1 mps 668 mmHg 43%
    23:00 +20°C° 0 mm 1 mps 667 mmHg 52%

    Day after tomorrow, 22 June, Friday

    Time Temperature Precipitation Wind Pressure Humidity
    00:00 +20°C° 0 mm 1 mps 667 mmHg 61%
    01:00 +19°C° 0 mm 1 mps 667 mmHg 70%
    02:00 +18°C° 0 mm 1 mps 666 mmHg 75%
    03:00 +16°C° 0 mm 1 mps 666 mmHg 80%
    04:00 +16°C° 0 mm 1 mps 666 mmHg 85%
    05:00 +16°C° 0 mm 1 mps 666 mmHg 84%
    06:00 +16°C° 0 mm 1 mps 667 mmHg 82%
    07:00 +18°C° 0 mm 1 mps 668 mmHg 80%
    08:00 +21°C° 0 mm 1 mps 668 mmHg 63%
    09:00 +25°C° 0 mm 2 mps 669 mmHg 46%
    10:00 +28°C° 0 mm 2 mps 670 mmHg 29%
    11:00 +30°C° 0 mm 2 mps 670 mmHg 26%
    12:00 +31°C° 0 mm 2 mps 669 mmHg 22%
    13:00 +34°C° 0 mm 2 mps 669 mmHg 19%
    14:00 +34°C° 0 mm 2 mps 668 mmHg 19%
    15:00 +32°C° 0 mm 2 mps 667 mmHg 19%
    16:00 +32°C° 0 mm 1 mps 667 mmHg 19%
    17:00 +30°C° 0 mm 1 mps 667 mmHg 23%
    18:00 +27°C° 0 mm 1 mps 667 mmHg 27%
    19:00 +22°C° 0 mm 0 mps 666 mmHg 31%
    20:00 +22°C° 0 mm 0 mps 667 mmHg 33%
    21:00 +23°C° 0 mm 1 mps 667 mmHg 35%
    22:00 +22°C° 0 mm 1 mps 667 mmHg 38%
    23:00 +21°C° 0 mm 1 mps 667 mmHg 48%

    23 June, Saturday

    Time Temperature Precipitation Wind Pressure Humidity
    00:00 +19°C° 0 mm 2 mps 667 mmHg 58%
    01:00 +19°C° 0 mm 2 mps 666 mmHg 68%
    02:00 +18°C° 0 mm 2 mps 666 mmHg 74%
    03:00 +18°C° 0 mm 1 mps 666 mmHg 79%
    04:00 +18°C° 0 mm 1 mps 665 mmHg 85%
    05:00 +18°C° 0 mm 1 mps 666 mmHg 82%
    06:00 +18°C° 0 mm 1 mps 666 mmHg 80%
    07:00 +18°C° 0 mm 1 mps 667 mmHg 77%
    08:00 +22°C° 0 mm 1 mps 668 mmHg 61%
    09:00 +25°C° 0 mm 2 mps 669 mmHg 44%
    10:00 +29°C° 0 mm 3 mps 669 mmHg 28%
    11:00 +30°C° 0 mm 3 mps 669 mmHg 25%
    12:00 +31°C° 0 mm 3 mps 668 mmHg 23%
    13:00 +34°C° 0 mm 3 mps 668 mmHg 20%
    14:00 +34°C° 0 mm 3 mps 667 mmHg 20%
    15:00 +32°C° 0 mm 2 mps 666 mmHg 21%
    16:00 +32°C° 0 mm 2 mps 666 mmHg 21%
    17:00 +30°C° 0 mm 1 mps 666 mmHg 25%
    18:00 +27°C° 0 mm 1 mps 666 mmHg 28%
    19:00 +25°C° 0 mm 1 mps 666 mmHg 32%
    20:00 +22°C° 0 mm 0 mps 666 mmHg 33%
    21:00 +22°C° 0 mm 0 mps 666 mmHg 34%
    22:00 +21°C° 0 mm 0 mps 666 mmHg 35%
    23:00 +20°C° 0 mm 0 mps 666 mmHg 40%

    24 June, Sunday

    Time Temperature Precipitation Wind Pressure Humidity
    00:00 +21°C° 0 mm 1 mps 666 mmHg 45%
    01:00 +20°C° 0 mm 1 mps 665 mmHg 49%
    02:00 +20°C° 0 mm 1 mps 665 mmHg 56%
    03:00 +19°C° 0 mm 1 mps 665 mmHg 63%
    04:00 +19°C° 0 mm 1 mps 665 mmHg 69%
    05:00 +19°C° 0 mm 1 mps 665 mmHg 68%
    06:00 +19°C° 0 mm 1 mps 666 mmHg 66%
    07:00 +19°C° 0 mm 1 mps 666 mmHg 65%
    08:00 +23°C° 0 mm 1 mps 667 mmHg 53%
    09:00 +26°C° 0 mm 2 mps 668 mmHg 41%
    10:00 +29°C° 0 mm 2 mps 669 mmHg 29%
    11:00 +31°C° 0 mm 2 mps 668 mmHg 26%
    12:00 +32°C° 0 mm 2 mps 668 mmHg 24%
    13:00 +34°C° 0 mm 2 mps 667 mmHg 22%
    14:00 +34°C° 0 mm 2 mps 666 mmHg 23%
    15:00 +32°C° 0 mm 1 mps 666 mmHg 23%
    16:00 +31°C° 0 mm 1 mps 665 mmHg 23%
    17:00 +30°C° 0 mm 1 mps 666 mmHg 26%
    18:00 +28°C° 0 mm 1 mps 666 mmHg 28%
    19:00 +27°C° 0 mm 1 mps 666 mmHg 30%
    20:00 +26°C° 0 mm 1 mps 666 mmHg 32%
    21:00 +25°C° 0 mm 1 mps 667 mmHg 33%
    22:00 +25°C° 0 mm 1 mps 667 mmHg 35%
    23:00 +24°C° 0 mm 1 mps 666 mmHg 43%

    25 June, Monday

    Time Temperature Precipitation Wind Pressure Humidity
    00:00 +23°C° 0 mm 2 mps 666 mmHg 50%
    01:00 +21°C° 0 mm 2 mps 666 mmHg 58%
    02:00 +20°C° 0 mm 2 mps 666 mmHg 67%
    03:00 +19°C° 0 mm 2 mps 665 mmHg 76%
    04:00 +19°C° 0 mm 1 mps 665 mmHg 86%
    05:00 +19°C° 0 mm 1 mps 665 mmHg 86%
    06:00 +19°C° 0 mm 1 mps 666 mmHg 87%
    07:00 +19°C° 0 mm 1 mps 666 mmHg 88%
    08:00 +22°C° 0 mm 1 mps 667 mmHg 72%
    09:00 +26°C° 0 mm 1 mps 668 mmHg 57%
    10:00 +29°C° 0 mm 1 mps 669 mmHg 42%
    11:00 +31°C° 0 mm 1 mps 668 mmHg 36%
    12:00 +33°C° 0 mm 1 mps 668 mmHg 29%
    13:00 +35°C° 0 mm 1 mps 668 mmHg 23%
    14:00 +34°C° 0 mm 1 mps 667 mmHg 24%
    15:00 +33°C° 0 mm 1 mps 666 mmHg 25%
    16:00 +31°C° 0 mm 1 mps 666 mmHg 26%
    17:00 +30°C° 0 mm 1 mps 666 mmHg 30%
    18:00 +28°C° 0 mm 2 mps 666 mmHg 35%
    19:00 +26°C° 0 mm 2 mps 666 mmHg 40%
    20:00 +25°C° 0 mm 2 mps 666 mmHg 46%
    21:00 +24°C° 0 mm 2 mps 666 mmHg 53%
    22:00 +21°C° 0 mm 2 mps 666 mmHg 60%
    23:00 +21°C° 0 mm 2 mps 666 mmHg 65%
    Show more